Probability
0 0 0 0 0 0 0 0 0 0 0 0 0 0 0 0 0 0 0 0 0 0 0 3 3 3 3 0 0 0 0 0 0 0 0 0 0 0 3 3 3 3 3
0 0 0 0 0 0 0 0 0 0 0 0 0 0 0 0 0 0 0 0 0 0 3 6 3 3 0 0 0 0 0 0 0 0 0 0 0 0 0 0 0 3 3
0 0 0 0 0 0 0 0 0 0 0 0 0 0 0 0 0 0 0 0 0 0 0 0 0 0 0 0 0 0 0 0 0 0 0 0 0 0 0 0 0 0 0
0 0 0 0 0 0 0 0 0 0 0 0 0 0 0 0 0 0 0 0 0 0 0 0 0 0 0 0 0 0 0 0 0 0 0 0 0 0 0 0 0 0 0
0 0 0 0 0 0 0 0 0 0 0 0 0 0 0 0 0 0 0 0 0 0 0 0 0 0 0 0 0 0 0 0 0 0 0 0 0 0 0 0 0 0 0
0 0 0 0 0 0 0 0 0 0 0 0 0 0 0 0 0 0 0 0 0 0 0 0 0 0 0 0 0 0 0 0 0 0 0 0 0 0 0 0 0 0 0
0 0 0 0 0 0 0 0 0 0 0 0 0 0 0 0 0 0 0 0 0 0 0 0 0 0 0 0 0 0 0 0 0 0 0 0 0 0 0 0 0 0 0
0 0 0 0 0 0 0 0 0 0 0 0 0 0 0 0 0 0 0 0 0 0 0 0 0 0 0 0 0 0 0 0 0 0 0 0 0 0 0 0 0 0 0
0 0 0 0 0 0 0 0 0 0 0 0 0 0 0 0 0 0 0 0 0 0 0 0 0 0 0 0 0 0 0 0 0 0 0 0 0 0 0 0 0 0 0
0 0 0 0 0 0 0 0 0 0 0 0 0 0 0 0 0 0 0 0 0 0 0 0 0 0 0 0 0 0 0 0 0 0 0 0 0 0 0 0 0 0 0
0 0 0 0 0 0 0 0 0 0 0 0 0 0 0 0 0 0 0 0 0 0 0 0 0 0 0 0 0 0 0 0 0 0 0 0 0 0 0 0 0 0 0
0 0 0 0 0 0 0 0 0 0 0 0 0 0 0 0 0 0 0 0 0 0 0 0 0 0 0 0 0 0 0 0 0 0 0 0 0 0 0 0 0 0 0
0 0 0 0 0 0 0 0 0 0 0 0 0 0 0 0 0 0 0 0 0 0 0 0 0 0 0 0 0 0 0 0 0 0 0 0 0 0 0 0 0 0 0
0 0 0 0 0 0 0 0 0 0 0 0 0 0 0 0 0 0 0 0 0 0 0 0 0 0 0 0 0 0 0 0 0 0 0 0 0 0 0 0 0 0 0
0 0 0 0 0 0 0 0 0 0 0 0 0 0 0 0 0 0 0 0 0 0 0 0 0 0 0 0 0 0 0 0 0 0 0 0 0 0 0 0 0 0 0
0 0 0 0 0 0 0 0 0 0 0 0 0 0 0 0 0 0 0 0 0 0 0 0 0 0 0 0 0 0 0 0 0 0 0 0 0 0 0 0 0 0 0
0 0 0 0 0 0 0 0 0 0 0 0 0 0 0 0 0 0 0 0 0 0 0 0 0 0 0 0 0 0 0 0 0 0 0 0 0 0 0 0 0 0 0
0 0 0 0 0 0 0 0 0 0 0 0 0 0 0 0 0 0 0 0 0 0 0 0 0 0 0 0 0 0 0 0 0 0 0 0 0 0 0 0 0 0 0
0 0 0 0 0 0 0 0 0 0 0 0 0 0 0 0 0 0 0 0 0 0 0 0 0 0 0 0 0 0 0 0 0 0 0 0 0 0 0 0 0 0 0
0 0 0 0 0 0 0 0 0 0 0 0 0 0 0 0 0 0 0 0 0 0 0 0 0 0 0 0 0 0 0 0 0 0 0 0 0 0 0 0 0 0 0
0 0 0 0 0 0 0 0 0 0 0 0 0 0 0 0 0 0 0 0 0 0 0 0 0 0 0 0 0 0 0 0 0 0 0 0 0 0 0 0 0 0 0
0 0 0 0 0 0 0 0 0 0 0 0 0 0 0 0 0 0 0 0 0 0 0 0 0 0 0 0 0 0 0 0 0 0 0 0 0 0 0 0 0 0 0
0 0 0 0 0 0 0 0 0 0 0 0 0 0 0 0 0 0 0 0 0 0 0 0 0 0 0 0 0 0 0 0 0 0 0 0 0 0 0 0 0 0 0
0 0 0 0 0 0 0 0 0 0 0 0 0 0 0 0 0 0 0 0 0 0 0 0 0 0 0 0 0 0 0 0 0 0 0 0 0 0 0 0 0 0 0
0 0 0 0 0 0 0 0 0 0 0 0 0 0 0 0 0 0 0 0 0 0 0 0 0 0 0 0 0 0 0 0 0 0 0 0 0 0 0 0 0 0 0
0 0 0 0 0 0 0 0 0 0 0 0 0 0 0 0 0 0 0 0 0 0 0 0 0 0 0 0 0 0 0 0 0 0 0 0 0 0 0 0 0 0 0
Height
5797 5797 5798 5799 5800 5801 5801 5802 5802 5803 5803 5804 5804 5805 5805 5804 5804 5804 5804 5803 5803 5802 5802 5801 5800 5799 5799 5798 5797 5796 5795 5794 5794 5793 5792 5792 5792 5791 5791 5790 5789 5789 5789
5790 5791 5792 5793 5793 5794 5795 5795 5796 5797 5797 5797 5797 5798 5798 5797 5797 5797 5796 5796 5795 5794 5794 5793 5792 5791 5790 5789 5788 5787 5786 5785 5783 5783 5782 5782 5782 5781 5781 5781 5780 5780 5779
5783 5784 5785 5786 5787 5787 5788 5788 5789 5789 5790 5790 5790 5790 5790 5790 5789 5789 5788 5787 5787 5786 5785 5784 5783 5782 5781 5779 5779 5777 5776 5774 5773 5772 5772 5772 5771 5771 5771 5770 5770 5770 5769
5776 5777 5778 5779 5779 5780 5780 5781 5781 5782 5782 5782 5782 5782 5782 5782 5781 5781 5780 5779 5778 5777 5776 5775 5774 5772 5771 5770 5769 5767 5765 5764 5763 5762 5762 5761 5761 5760 5760 5760 5759 5759 5759
5768 5769 5770 5771 5771 5772 5772 5773 5774 5774 5774 5774 5774 5774 5774 5773 5773 5772 5771 5770 5769 5768 5767 5766 5764 5763 5761 5760 5758 5757 5755 5753 5752 5752 5751 5750 5749 5749 5749 5748 5748 5747 5747
5760 5761 5762 5763 5763 5764 5764 5765 5765 5765 5765 5765 5765 5765 5765 5764 5763 5763 5762 5761 5760 5758 5757 5756 5754 5753 5751 5749 5747 5745 5744 5742 5741 5740 5740 5739 5738 5738 5737 5737 5736 5736 5735
5752 5753 5754 5755 5755 5755 5756 5756 5756 5756 5756 5756 5756 5756 5756 5755 5754 5753 5752 5751 5750 5748 5747 5745 5744 5742 5740 5738 5736 5734 5733 5731 5730 5729 5729 5728 5727 5726 5726 5725 5725 5724 5724
5744 5744 5746 5746 5746 5747 5747 5747 5747 5747 5747 5746 5747 5746 5746 5746 5744 5743 5742 5740 5739 5737 5736 5734 5733 5731 5729 5727 5725 5723 5721 5720 5719 5718 5717 5717 5716 5715 5714 5713 5713 5712 5712
5736 5736 5737 5737 5737 5737 5738 5738 5737 5737 5737 5737 5736 5736 5735 5735 5734 5733 5731 5730 5728 5726 5724 5723 5721 5719 5717 5715 5713 5711 5710 5709 5708 5707 5706 5705 5704 5703 5702 5701 5701 5700 5699
5726 5727 5727 5728 5728 5728 5728 5727 5727 5727 5727 5726 5726 5725 5724 5723 5722 5722 5721 5719 5717 5715 5713 5711 5709 5707 5705 5703 5701 5700 5698 5697 5696 5695 5694 5693 5692 5691 5690 5689 5688 5687 5687
5717 5717 5718 5718 5718 5718 5718 5717 5717 5717 5716 5716 5715 5714 5712 5711 5710 5709 5709 5708 5706 5704 5702 5700 5698 5696 5694 5692 5690 5688 5687 5686 5685 5684 5683 5681 5680 5679 5678 5677 5676 5675 5674
5707 5707 5708 5708 5708 5708 5708 5707 5707 5706 5705 5705 5704 5702 5701 5700 5699 5697 5696 5695 5694 5692 5691 5689 5687 5685 5682 5680 5678 5677 5675 5675 5674 5672 5671 5669 5668 5667 5666 5664 5663 5662 5661
5697 5697 5698 5697 5697 5697 5697 5697 5696 5696 5695 5694 5693 5692 5690 5689 5687 5685 5684 5683 5682 5681 5679 5678 5676 5673 5671 5669 5667 5665 5664 5663 5662 5660 5659 5657 5656 5654 5653 5651 5650 5648 5647
5686 5687 5687 5687 5687 5687 5686 5686 5685 5685 5684 5683 5682 5681 5679 5678 5676 5674 5673 5671 5670 5669 5668 5667 5665 5662 5660 5657 5656 5654 5652 5651 5649 5648 5646 5644 5643 5641 5640 5638 5636 5634 5633
5675 5676 5676 5676 5676 5675 5675 5675 5674 5673 5673 5672 5671 5670 5668 5667 5665 5663 5662 5660 5659 5658 5657 5656 5654 5651 5649 5646 5644 5642 5640 5638 5637 5635 5633 5631 5629 5628 5626 5624 5622 5620 5618
5664 5665 5665 5665 5665 5664 5664 5664 5663 5662 5662 5661 5660 5659 5658 5656 5655 5653 5651 5650 5648 5647 5645 5644 5642 5639 5637 5635 5632 5630 5628 5626 5624 5622 5620 5618 5616 5614 5612 5610 5608 5606 5605
5652 5653 5653 5653 5653 5653 5653 5652 5652 5651 5651 5650 5649 5648 5647 5645 5644 5643 5641 5639 5637 5635 5634 5633 5630 5628 5625 5623 5621 5618 5615 5613 5610 5608 5606 5603 5601 5599 5597 5596 5594 5592 5590
5640 5641 5641 5641 5641 5641 5641 5641 5641 5640 5640 5639 5638 5637 5636 5634 5633 5632 5630 5629 5627 5624 5623 5621 5619 5616 5613 5611 5608 5606 5602 5600 5597 5594 5591 5589 5587 5585 5583 5581 5579 5578 5576
5628 5629 5629 5629 5629 5629 5629 5629 5629 5629 5628 5628 5627 5626 5625 5624 5622 5621 5619 5618 5615 5613 5611 5609 5607 5604 5601 5598 5596 5593 5590 5586 5583 5580 5577 5575 5573 5571 5569 5567 5565 5564 5562
5616 5617 5617 5617 5617 5617 5618 5618 5618 5617 5617 5616 5615 5614 5613 5612 5611 5610 5608 5606 5604 5602 5599 5597 5595 5592 5589 5586 5583 5581 5578 5574 5570 5567 5564 5561 5559 5557 5555 5553 5552 5550 5548
5603 5604 5605 5605 5605 5605 5606 5606 5606 5605 5605 5604 5603 5602 5602 5601 5600 5598 5597 5595 5593 5590 5588 5585 5583 5580 5577 5573 5571 5567 5564 5561 5557 5554 5551 5548 5546 5544 5542 5539 5538 5536 5534
5591 5591 5592 5592 5593 5593 5593 5593 5593 5593 5593 5592 5592 5591 5590 5589 5588 5586 5584 5583 5581 5578 5576 5573 5571 5568 5565 5561 5557 5554 5551 5548 5546 5543 5539 5536 5533 5530 5528 5526 5525 5523 5521
5578 5579 5579 5580 5581 5581 5581 5581 5581 5581 5581 5580 5580 5579 5578 5577 5575 5574 5572 5570 5568 5566 5564 5561 5559 5555 5552 5549 5545 5542 5538 5534 5532 5529 5526 5523 5520 5517 5515 5513 5511 5510 5508
5566 5567 5567 5568 5569 5569 5569 5569 5569 5568 5568 5568 5567 5566 5565 5564 5562 5561 5559 5557 5555 5553 5551 5548 5546 5543 5539 5535 5532 5528 5525 5522 5519 5515 5512 5510 5508 5505 5502 5501 5498 5497 5495
5554 5554 5555 5556 5556 5557 5557 5556 5556 5556 5556 5556 5555 5554 5552 5551 5550 5548 5547 5545 5543 5541 5538 5535 5532 5529 5526 5522 5519 5515 5512 5509 5507 5504 5500 5498 5496 5494 5492 5489 5487 5485 5483
5541 5542 5543 5543 5544 5544 5544 5544 5543 5544 5544 5543 5542 5541 5540 5538 5537 5535 5534 5532 5531 5528 5525 5523 5520 5517 5513 5510 5506 5503 5500 5497 5494 5492 5489 5486 5484 5482 5481 5479 5476 5474 5472
Wind_Speed
28 28 28 27 27 28 28 28 27 28 29 29 29 30 30 31 32 32 33 33 34 34 34 35 35 35 36 37 37 36 36 37 38 38 39 39 39 38 38 37 37 37 38
30 29 29 28 29 29 29 30 30 30 30 31 31 32 33 33 33 34 34 35 36 36 36 37 37 38 38 39 39 38 39 40 40 41 41 41 41 41 41 41 40 40 40
31 31 30 30 30 31 31 31 31 31 32 32 33 33 34 34 35 35 36 36 37 37 37 38 38 39 40 40 40 40 41 42 42 43 43 44 44 44 44 44 44 43 43
32 32 32 33 33 33 33 33 33 33 34 34 34 35 36 36 36 36 36 37 38 39 39 39 40 41 41 41 42 42 43 43 43 43 44 44 45 45 46 46 46 46 45
33 34 34 35 35 35 35 35 35 35 36 36 36 36 37 37 37 38 38 39 40 41 41 41 42 42 42 43 43 44 44 45 44 45 44 44 45 46 46 46 46 47 47
33 34 35 36 36 36 36 36 37 37 37 37 38 38 38 39 39 40 40 41 41 42 42 43 43 43 44 44 44 45 45 45 45 45 46 46 46 46 47 46 47 47 47
33 34 35 36 37 37 37 38 38 38 39 39 39 39 40 40 40 41 42 43 43 44 44 44 44 45 45 45 45 45 45 45 45 45 45 46 46 47 47 47 47 47 47
34 35 36 37 37 37 38 39 39 40 41 41 40 41 40 40 41 41 42 43 44 44 45 45 45 45 45 45 45 45 45 45 45 46 46 46 46 46 47 48 47 48 47
38 37 36 37 38 39 39 40 40 40 41 41 42 42 41 41 42 43 43 43 44 44 45 45 45 45 46 46 46 45 45 45 45 45 46 45 45 46 47 48 48 48 48
39 38 38 38 39 40 40 40 40 41 41 42 43 43 43 43 43 43 44 44 44 43 44 45 45 46 46 46 45 45 45 45 45 45 46 46 46 47 47 47 48 47 48
41 40 39 39 40 40 40 40 41 41 42 42 43 43 44 44 44 44 44 44 44 44 44 44 45 45 45 46 45 45 45 44 45 45 46 47 47 47 48 48 49 49 48
42 42 42 41 41 41 41 41 41 42 42 42 43 43 44 44 44 44 44 44 45 45 45 44 45 45 44 44 45 44 45 45 45 46 46 47 48 48 49 49 50 49 49
43 43 43 42 42 42 42 42 42 43 43 43 43 43 43 43 43 44 44 44 44 44 44 44 44 44 44 44 45 45 45 46 46 46 47 48 49 49 50 50 50 50 50
43 44 44 44 43 44 44 43 43 44 44 44 44 43 43 43 43 44 44 44 43 43 44 44 44 44 44 45 45 46 46 47 47 48 48 49 49 50 51 51 51 50 50
45 44 44 44 44 44 44 44 43 43 43 44 43 43 43 43 43 43 42 42 43 43 43 44 44 44 45 45 46 46 47 48 48 49 49 49 50 50 51 51 50 50 50
45 45 46 45 45 44 44 44 44 43 43 43 43 43 43 42 42 42 42 42 43 43 43 44 45 45 46 46 46 47 48 49 49 49 50 50 51 51 50 50 49 49 49
47 46 46 45 45 44 44 43 43 43 43 43 43 43 43 42 42 42 43 43 43 43 44 44 45 46 46 47 47 48 48 49 49 50 50 50 50 51 50 50 49 48 48
47 47 47 46 45 45 44 44 44 44 44 43 43 43 43 43 43 43 43 44 44 44 44 44 45 46 47 48 48 48 49 49 49 50 49 49 49 49 49 49 49 49 48
47 48 48 47 47 46 45 45 45 45 44 44 44 44 43 43 43 43 44 44 44 45 46 46 46 47 48 48 48 49 50 50 50 49 49 48 48 48 48 48 49 48 48
48 48 48 48 48 47 46 45 45 45 44 44 44 44 44 43 43 43 43 44 44 45 46 46 46 46 47 48 48 49 49 49 49 48 48 47 48 48 48 48 47 47 46
48 48 47 48 48 46 45 45 44 44 44 44 44 44 43 43 43 44 44 44 45 46 46 46 46 47 47 48 48 48 49 48 48 46 46 46 48 48 48 47 46 46 46
47 47 47 47 46 45 45 44 43 43 44 44 44 43 44 44 45 46 46 46 46 46 46 47 47 47 48 48 48 48 48 47 46 46 46 46 46 46 46 45 44 44 44
46 45 45 45 45 45 44 43 42 42 42 43 43 44 45 46 47 47 47 48 47 47 47 47 47 47 48 47 47 47 47 46 46 46 45 45 45 44 44 44 44 44 44
45 45 44 44 44 44 44 44 42 42 42 43 44 45 45 46 46 47 47 47 47 47 47 47 47 48 47 47 47 46 46 46 45 44 44 43 42 42 42 42 42 42 42
44 44 43 43 44 44 45 44 43 43 43 43 44 45 45 45 45 46 47 46 46 46 47 47 47 47 47 46 46 45 45 44 42 42 41 41 40 40 40 39 39 39 39
43 43 44 43 44 45 44 44 44 43 43 43 44 44 45 45 46 46 45 45 44 44 45 46 46 45 45 45 45 44 43 42 41 40 40 39 38 38 37 36 36 37 37
Wind_Direction
258 261 262 262 262 263 264 265 267 267 268 270 270 271 273 275 276 277 277 277 277 278 279 279 279 279 279 279 279 279 279 279 278 278 278 278 278 278 277 279 279 277 276
259 260 262 263 264 264 266 266 267 268 270 271 271 273 274 276 276 277 278 278 278 278 279 279 279 280 280 280 278 279 279 278 278 278 278 277 277 277 277 277 277 277 275
259 260 261 263 265 266 266 267 269 269 270 272 273 274 275 277 277 278 278 279 279 280 280 280 280 280 280 279 278 278 278 278 278 278 278 277 276 276 277 277 276 277 275
260 261 262 263 264 266 267 267 269 269 270 272 274 275 276 276 278 278 279 279 280 280 280 280 281 281 281 279 278 278 278 278 278 278 278 278 277 277 276 276 277 276 276
261 261 263 264 265 266 266 267 269 270 272 273 274 275 275 276 277 278 279 280 280 280 280 280 281 280 281 281 280 279 279 278 278 278 278 278 278 277 276 276 276 276 276
262 263 264 263 264 266 267 268 270 271 273 273 274 275 276 276 277 277 279 280 280 280 280 280 280 280 281 281 282 280 279 279 278 278 278 278 278 277 277 276 276 276 275
264 265 264 263 264 265 266 268 270 272 273 274 275 275 276 278 279 279 280 279 280 279 279 279 280 280 280 281 282 280 280 279 278 277 278 278 277 277 277 276 276 275 275
264 267 267 265 265 266 267 269 270 272 273 274 275 276 276 277 278 280 281 281 280 279 279 279 280 280 281 281 282 281 280 280 278 277 277 278 278 277 277 276 276 276 275
264 266 268 267 266 268 269 271 273 274 274 274 275 276 277 278 279 280 281 281 281 281 279 279 279 280 281 282 282 281 279 279 278 278 278 277 277 277 277 277 277 277 276
263 265 267 268 269 269 271 273 273 274 274 275 275 276 278 279 280 280 281 281 281 282 281 280 280 280 281 282 282 280 279 279 278 278 278 277 278 279 278 278 277 276 276
265 266 267 269 269 269 271 272 273 274 274 274 275 277 278 279 280 280 280 280 281 281 281 282 282 282 281 281 281 281 280 279 279 279 278 278 278 279 279 278 278 277 276
265 268 269 270 269 269 271 272 273 273 274 275 276 277 279 280 280 280 280 280 280 280 281 282 282 283 283 281 281 280 279 280 280 280 280 280 279 279 279 279 278 277 276
265 267 269 271 270 271 272 272 274 274 275 276 277 278 279 280 280 280 280 279 279 279 280 281 282 283 283 282 281 281 280 280 281 281 281 280 280 279 279 279 278 278 276
265 267 268 270 271 272 272 273 274 276 276 276 277 277 279 280 280 281 281 280 279 279 280 281 282 283 283 283 283 282 281 281 281 281 282 281 280 280 279 279 278 277 277
266 267 268 270 271 272 272 273 275 275 275 276 277 277 279 280 281 282 282 282 282 281 281 281 282 283 283 283 283 283 283 282 281 281 282 281 281 280 280 279 279 278 277
266 269 269 270 271 271 272 273 274 274 275 275 276 277 278 279 280 281 282 283 284 284 283 283 283 284 284 284 284 284 283 283 282 281 281 281 281 280 280 280 279 279 277
267 269 270 271 271 271 271 272 273 274 275 275 276 277 278 278 279 281 281 283 285 285 285 284 284 284 284 285 285 285 285 285 284 283 282 282 282 281 280 280 279 279 277
267 268 269 270 271 271 271 271 272 273 274 275 276 277 277 277 278 279 281 283 285 285 285 284 285 285 286 286 286 287 288 287 286 285 284 283 282 282 281 280 280 279 278
267 268 269 270 270 271 272 271 273 273 273 274 275 275 276 277 278 279 281 283 284 285 285 286 285 286 286 286 286 288 289 289 288 286 285 285 284 283 282 281 280 279 278
267 268 269 270 269 270 271 271 272 272 273 274 274 274 275 276 277 279 281 282 283 285 286 286 286 287 287 287 286 288 289 289 288 287 286 285 284 283 282 282 281 280 279
268 269 270 270 269 269 270 271 270 271 272 274 274 274 275 275 276 279 281 282 284 286 286 286 287 288 288 288 287 288 289 289 288 287 286 285 285 284 283 282 280 280 279
269 269 270 269 269 269 270 270 269 271 272 273 273 274 274 275 277 279 281 283 285 286 286 287 288 288 289 289 289 289 289 289 288 287 286 285 285 284 283 282 281 280 280
268 269 269 269 269 270 270 269 269 271 272 272 271 272 274 276 277 279 281 283 284 285 286 287 288 288 288 289 288 288 289 289 289 288 286 285 285 284 282 281 280 280 280
268 268 268 269 269 269 269 269 270 271 272 272 272 273 275 277 278 279 281 282 283 284 285 286 287 288 288 289 289 289 289 289 289 288 287 285 285 284 283 282 282 281 281
268 268 268 268 269 269 269 269 270 270 272 273 274 275 276 277 279 279 280 282 283 284 285 286 288 288 289 289 289 290 290 289 289 288 287 286 285 284 284 283 282 282 281
267 267 267 268 268 269 268 270 271 271 272 274 275 276 277 279 280 281 282 282 283 284 285 286 288 289 289 290 291 290 289 289 288 288 288 287 285 284 283 283 283 282 281